DELTA 1 DEB, 10262

Orbit data source: Space-Track

DELTA 1 DEB, 10262 is space debris in LEO originally from a launch on Thu, 14 Jul 1977 UTC launched from the Air Force Eastern Test Range (AFETR). Debris objects in space refer to the collection of defunct objects orbiting the Earth. Examples of debris include non-operational satellites, rocket bodies, and fragments generated from explosions, collisions, or faulty payload assembly.

Loading next visibility...
Identifier
10262, 1977-065CP
Orbit
LEO
Country
Flag of USUS
Related business
Manufacturer
Unknown
Mission
Spacecraft
Bus & Motor
Unknown
Mass
Unknown
Launch date (UTC)
1977-07-14 (48 years ago)
Launch vehicle
Unknown
Launch site
Air Force Eastern Test Range (AFETR)
Object type
Payload
Rocket body
Debris
Shape & HBR
Unknown shape, 0.1 m
Radar Cross Section
Small (<0.1 m²)

Expand to show TLE details & history
Last TLE update: 17 hours ago

TLE from 17 hours ago
0 DELTA 1 DEB
1 10262U 77065CP  25303.64462006  .00002246  00000-0  46165-3 0  9996
2 10262  29.0619  74.1401 0638827 306.3154  48.0048 13.75586988374618
Epoch: 2025-10-30T15:28Z
TLE epoch observation values (Epoch: 2025-10-30T15:28:15.173Z)
Latitude
-0.00003°
Longitude
162.87639°
Altitude
681.284 km
Speed
7.668 km/s
True Right ascension
04h 56m 33s
True Declination
0° 00' 00"
Sunlit
Object was in full shadow at epoch
Visualization orbit readout
Latitude
Unknown
Longitude
Unknown
Altitude
Unknown
Speed
Unknown
Apparent Right ascension
Unknown
Apparent Declination
Unknown
Sunlit
N/A
Visualization observer readout
Local Sidereal Time
04:00:07
Azimuth
Unknown
Elevation
Unknown
Doppler factor
Unknown
Orbital elements
Apogee altitude
1,453.758 km
Perigee altitude
513.198 km
Semi-major axis
7,361.615 km
Eccentricity
0.06388
Inclination
29.0619°
RAAN
74.1401°
Arg. of periapsis
306.3154°
True anomaly
53.74201°
Mean anomaly
48.0048°
Eccentric anomaly
50.84299°
Mean motion
3.43624 °/min
Orbital period
104.77 mins
BSTAR
0.00046165
Loading maneuver chart data...
Computing Atmospheric mass density...

Documentation

Showing up to 5 results
|